EWG64P EDDS-LOWW

Flight info

Callsign EWG64P
Flight time 0h 59m
Altitude 31000
Route ABTAL4H ABTAL L173 RIXED Y161 RIDAR Z98 MIQ L605 BIBAG Q104 AKIMA DCT MASUR MASUR3W
Aircraft A320/M-SDE3FGHIRWY/LB1

Departure

Time 2026-05-05 09:12
Airport Stuttgart Airport (EDDS)

Arrival

Time 2026-05-05 10:11
Airport Vienna International Airport (LOWW)
Time Latitude Longitude Altitude Speed Heading
2026-05-05 08:32 48.68930 9.19652 1291 ft 0 kts 343°
2026-05-05 09:01 48.68925 9.19655 1285 ft 2 kts 343°
2026-05-05 09:01 48.68909 9.19662 1290 ft 2 kts 343°
2026-05-05 09:02 48.68892 9.19670 1288 ft 2 kts 343°
2026-05-05 09:02 48.68876 9.19674 1286 ft 2 kts 35°
2026-05-05 09:02 48.68868 9.19665 1287 ft 0 kts 70°
2026-05-05 09:06 48.68880 9.19711 1285 ft 11 kts 70°
2026-05-05 09:06 48.68896 9.19806 1285 ft 4 kts 92°
2026-05-05 09:06 48.68890 9.19843 1285 ft 3 kts 113°
2026-05-05 09:07 48.68837 9.19918 1285 ft 17 kts 144°
2026-05-05 09:07 48.68737 9.19967 1288 ft 11 kts 165°
2026-05-05 09:07 48.68672 9.19991 1285 ft 9 kts 163°
2026-05-05 09:07 48.68670 9.19992 1285 ft 0 kts 163°
2026-05-05 09:09 48.68669 9.19993 1285 ft 3 kts 163°
2026-05-05 09:10 48.68590 9.20029 1287 ft 11 kts 161°
2026-05-05 09:10 48.68583 9.20057 1285 ft 2 kts 72°
2026-05-05 09:10 48.68588 9.20077 1286 ft 1 kts 72°
2026-05-05 09:10 48.68589 9.20085 1285 ft 1 kts 72°
2026-05-05 09:11 48.68614 9.20242 1285 ft 40 kts 78°
2026-05-05 09:11 48.68754 9.21005 1287 ft 108 kts 72°
2026-05-05 09:11 48.69027 9.22394 1287 ft 162 kts 73°
2026-05-05 09:11 48.69372 9.24204 1717 ft 171 kts 75°
2026-05-05 09:12 48.69658 9.25877 2409 ft 169 kts 72°
2026-05-05 09:12 48.69993 9.27603 2899 ft 181 kts 72°
2026-05-05 09:12 48.70399 9.29563 3058 ft 207 kts 72°
2026-05-05 09:12 48.70832 9.31750 3346 ft 227 kts 73°
2026-05-05 09:13 48.71299 9.34175 3648 ft 252 kts 74°
2026-05-05 09:13 48.71789 9.36797 4273 ft 263 kts 75°
2026-05-05 09:13 48.72288 9.39494 5073 ft 268 kts 76°
2026-05-05 09:13 48.72796 9.42233 5902 ft 272 kts 76°
2026-05-05 09:14 48.73315 9.45026 6680 ft 276 kts 76°
2026-05-05 09:14 48.73839 9.47829 7457 ft 280 kts 76°
2026-05-05 09:14 48.74374 9.50678 8241 ft 283 kts 76°
2026-05-05 09:14 48.74916 9.53568 9018 ft 287 kts 76°
2026-05-05 09:15 48.75464 9.56491 9789 ft 290 kts 76°
2026-05-05 09:15 48.76023 9.59496 10217 ft 307 kts 76°
2026-05-05 09:15 48.76622 9.62727 10420 ft 329 kts 76°
2026-05-05 09:15 48.77253 9.66128 10863 ft 341 kts 76°
2026-05-05 09:16 48.77905 9.69624 11493 ft 347 kts 76°
2026-05-05 09:16 48.78564 9.73163 12163 ft 351 kts 76°
2026-05-05 09:16 48.79232 9.76752 12845 ft 356 kts 76°
2026-05-05 09:16 48.79906 9.80380 13507 ft 360 kts 76°
2026-05-05 09:17 48.80588 9.84064 14113 ft 364 kts 77°
2026-05-05 09:17 48.81276 9.87781 14704 ft 368 kts 77°
2026-05-05 09:17 48.81967 9.91538 15301 ft 371 kts 77°
2026-05-05 09:17 48.82652 9.95265 15886 ft 374 kts 77°
2026-05-05 09:18 48.83351 9.99084 16474 ft 377 kts 77°
2026-05-05 09:18 48.84053 10.02941 17054 ft 380 kts 77°
2026-05-05 09:18 48.84755 10.06830 17630 ft 383 kts 79°
2026-05-05 09:18 48.85193 10.10815 18173 ft 383 kts 89°
2026-05-05 09:19 48.85144 10.14852 18663 ft 382 kts 99°
2026-05-05 09:19 48.84817 10.18861 19164 ft 385 kts 100°
2026-05-05 09:19 48.84484 10.22909 19675 ft 388 kts 100°
2026-05-05 09:19 48.84149 10.26986 20171 ft 391 kts 100°
2026-05-05 09:20 48.83815 10.31094 20669 ft 394 kts 100°
2026-05-05 09:20 48.83471 10.35235 21159 ft 396 kts 102°
2026-05-05 09:20 48.82807 10.39282 21659 ft 396 kts 112°
2026-05-05 09:20 48.81657 10.43075 22135 ft 395 kts 123°
2026-05-05 09:21 48.80065 10.46461 22608 ft 395 kts 134°
2026-05-05 09:21 48.78181 10.49507 23070 ft 397 kts 136°
2026-05-05 09:21 48.76270 10.52552 23492 ft 400 kts 136°
2026-05-05 09:21 48.74346 10.55619 23877 ft 403 kts 136°
2026-05-05 09:22 48.72412 10.58703 24255 ft 405 kts 136°
2026-05-05 09:22 48.70460 10.61810 24634 ft 407 kts 136°
2026-05-05 09:22 48.68500 10.64927 25001 ft 410 kts 136°
2026-05-05 09:22 48.66532 10.68062 25357 ft 412 kts 136°
2026-05-05 09:23 48.64554 10.71213 25716 ft 414 kts 136°
2026-05-05 09:23 48.62574 10.74390 26059 ft 417 kts 134°
2026-05-05 09:23 48.60844 10.77939 26388 ft 423 kts 123°
2026-05-05 09:23 48.59565 10.81971 26710 ft 429 kts 112°
2026-05-05 09:24 48.58805 10.86299 27031 ft 436 kts 102°
2026-05-05 09:24 48.58556 10.90890 27322 ft 441 kts 94°
2026-05-05 09:24 48.58437 10.95587 27625 ft 444 kts 95°
2026-05-05 09:24 48.58313 11.00197 27925 ft 446 kts 95°
2026-05-05 09:25 48.58180 11.04886 28232 ft 448 kts 95°
2026-05-05 09:25 48.58043 11.09598 28524 ft 451 kts 95°
2026-05-05 09:25 48.57904 11.14339 28814 ft 453 kts 95°
2026-05-05 09:25 48.57787 11.19100 29102 ft 455 kts 94°
2026-05-05 09:26 48.57697 11.23890 29376 ft 457 kts 94°
2026-05-05 09:26 48.57620 11.28705 29645 ft 460 kts 94°
2026-05-05 09:26 48.57548 11.33544 29884 ft 462 kts 94°
2026-05-05 09:26 48.57473 11.38400 30109 ft 464 kts 94°
2026-05-05 09:27 48.57388 11.43285 30316 ft 466 kts 94°
2026-05-05 09:27 48.57290 11.48184 30524 ft 467 kts 94°
2026-05-05 09:27 48.57184 11.53094 30750 ft 468 kts 94°
2026-05-05 09:28 48.56611 11.62711 30862 ft 446 kts 105°
2026-05-05 09:28 48.55284 11.71782 30861 ft 440 kts 105°
2026-05-05 09:29 48.53958 11.80785 30861 ft 440 kts 105°
2026-05-05 09:29 48.52630 11.89801 30856 ft 441 kts 105°
2026-05-05 09:30 48.51289 11.98832 30859 ft 441 kts 105°
2026-05-05 09:30 48.49946 12.07839 30854 ft 440 kts 105°
2026-05-05 09:31 48.48606 12.16852 30852 ft 440 kts 105°
2026-05-05 09:31 48.47266 12.25793 30835 ft 440 kts 105°
2026-05-05 09:32 48.45895 12.34789 30849 ft 440 kts 105°
2026-05-05 09:32 48.44525 12.43776 30851 ft 440 kts 105°
2026-05-05 09:33 48.43163 12.52658 30846 ft 440 kts 105°
2026-05-05 09:33 48.41786 12.61631 30842 ft 440 kts 105°
2026-05-05 09:34 48.40392 12.70598 30841 ft 440 kts 105°
2026-05-05 09:34 48.39843 12.79780 30837 ft 444 kts 89°
2026-05-05 09:35 48.40148 12.89052 30833 ft 444 kts 89°
2026-05-05 09:35 48.40555 13.02965 30823 ft 444 kts 89°
2026-05-05 09:36 48.40811 13.12233 30832 ft 443 kts 89°
2026-05-05 09:36 48.41066 13.21499 30838 ft 443 kts 89°
2026-05-05 09:37 48.41304 13.30764 30838 ft 443 kts 89°
2026-05-05 09:37 48.41714 13.40004 30836 ft 443 kts 86°
2026-05-05 09:38 48.42333 13.49231 30821 ft 443 kts 85°
2026-05-05 09:38 48.42934 13.58421 30825 ft 443 kts 86°
2026-05-05 09:39 48.43474 13.67666 30829 ft 443 kts 86°
2026-05-05 09:39 48.43968 13.76917 30830 ft 443 kts 86°
2026-05-05 09:40 48.44466 13.86176 30830 ft 443 kts 86°
2026-05-05 09:40 48.44971 13.95433 30824 ft 443 kts 86°
2026-05-05 09:41 48.45468 14.04675 30846 ft 442 kts 86°
2026-05-05 09:41 48.45955 14.13910 30848 ft 441 kts 86°
2026-05-05 09:42 48.46350 14.21578 30843 ft 441 kts 86°
2026-05-05 09:42 48.46835 14.30951 30843 ft 455 kts 86°
2026-05-05 09:43 48.47077 14.35685 30527 ft 450 kts 86°
2026-05-05 09:43 48.47314 14.40357 30030 ft 446 kts 86°
2026-05-05 09:43 48.47544 14.44998 29473 ft 441 kts 86°
2026-05-05 09:43 48.47769 14.49588 28905 ft 437 kts 86°
2026-05-05 09:44 48.47993 14.54144 28365 ft 433 kts 86°
2026-05-05 09:44 48.48215 14.58653 27844 ft 429 kts 86°
2026-05-05 09:44 48.48432 14.63123 27316 ft 426 kts 86°
2026-05-05 09:44 48.48643 14.67553 26807 ft 422 kts 86°
2026-05-05 09:45 48.48850 14.71953 26306 ft 419 kts 86°
2026-05-05 09:45 48.49054 14.76308 25817 ft 415 kts 86°
2026-05-05 09:45 48.49252 14.80577 25348 ft 412 kts 86°
2026-05-05 09:45 48.49451 14.84925 24876 ft 409 kts 86°
2026-05-05 09:46 48.49646 14.89197 24392 ft 407 kts 86°
2026-05-05 09:46 48.49836 14.93441 23942 ft 404 kts 86°
2026-05-05 09:46 48.50024 14.97657 23504 ft 402 kts 87°
2026-05-05 09:46 48.50210 15.01850 23008 ft 399 kts 87°
2026-05-05 09:47 48.50393 15.06008 22557 ft 395 kts 87°
2026-05-05 09:47 48.50563 15.10084 22411 ft 383 kts 87°
2026-05-05 09:47 48.50737 15.14035 22251 ft 372 kts 87°
2026-05-05 09:47 48.50911 15.17894 21915 ft 367 kts 87°
2026-05-05 09:48 48.51083 15.21720 21515 ft 364 kts 87°
2026-05-05 09:48 48.51248 15.25511 21137 ft 361 kts 87°
2026-05-05 09:48 48.51409 15.29271 20755 ft 358 kts 87°
2026-05-05 09:48 48.51567 15.33005 20347 ft 356 kts 88°
2026-05-05 09:49 48.51720 15.36715 19963 ft 353 kts 88°
2026-05-05 09:49 48.51870 15.40411 19426 ft 356 kts 88°
2026-05-05 09:49 48.51975 15.44212 18653 ft 366 kts 94°
2026-05-05 09:49 48.51772 15.48034 18175 ft 366 kts 97°
2026-05-05 09:50 48.51556 15.51849 17717 ft 364 kts 97°
2026-05-05 09:50 48.51348 15.55645 17297 ft 362 kts 97°
2026-05-05 09:50 48.51142 15.59405 16905 ft 358 kts 97°
2026-05-05 09:50 48.50936 15.63138 16491 ft 356 kts 97°
2026-05-05 09:51 48.50729 15.66834 16116 ft 352 kts 97°
2026-05-05 09:51 48.50519 15.70505 15724 ft 350 kts 97°
2026-05-05 09:51 48.50378 15.72944 15458 ft 348 kts 98°
2026-05-05 09:51 48.50166 15.76562 15102 ft 345 kts 98°
2026-05-05 09:52 48.49953 15.80152 14733 ft 342 kts 98°
2026-05-05 09:52 48.49756 15.83462 14387 ft 340 kts 99°
2026-05-05 09:52 48.49551 15.86914 14036 ft 337 kts 99°
2026-05-05 09:52 48.49343 15.90416 13705 ft 334 kts 99°
2026-05-05 09:53 48.49136 15.93874 13408 ft 328 kts 99°
2026-05-05 09:53 48.48934 15.97264 13170 ft 320 kts 99°
2026-05-05 09:53 48.48736 16.00573 12935 ft 314 kts 99°
2026-05-05 09:53 48.48532 16.03814 12715 ft 308 kts 102°
2026-05-05 09:54 48.47976 16.06878 12498 ft 300 kts 119°
2026-05-05 09:54 48.46897 16.09496 12275 ft 293 kts 134°
2026-05-05 09:54 48.45408 16.11536 12071 ft 288 kts 149°
2026-05-05 09:54 48.43642 16.12910 11850 ft 285 kts 159°
2026-05-05 09:55 48.41824 16.14101 11631 ft 285 kts 159°
2026-05-05 09:55 48.40012 16.15290 11418 ft 284 kts 159°
2026-05-05 09:55 48.38201 16.16482 11206 ft 284 kts 159°
2026-05-05 09:55 48.36400 16.17667 10995 ft 282 kts 159°
2026-05-05 09:56 48.34604 16.18850 10777 ft 281 kts 159°
2026-05-05 09:56 48.32825 16.20043 10664 ft 281 kts 155°
2026-05-05 09:56 48.31299 16.21884 10491 ft 287 kts 131°
2026-05-05 09:56 48.30448 16.24615 10268 ft 296 kts 104°
2026-05-05 09:57 48.30511 16.27717 10009 ft 301 kts 79°
2026-05-05 09:57 48.31145 16.30716 9746 ft 303 kts 67°
2026-05-05 09:57 48.32446 16.33194 9469 ft 307 kts 39°
2026-05-05 09:57 48.34388 16.34561 9211 ft 309 kts 10°
2026-05-05 09:58 48.36522 16.34468 8973 ft 306 kts 343°
2026-05-05 09:58 48.38537 16.33623 8753 ft 301 kts 341°
2026-05-05 09:58 48.40534 16.32758 8613 ft 290 kts 341°
2026-05-05 09:58 48.42448 16.31930 8379 ft 283 kts 341°
2026-05-05 09:59 48.44324 16.31121 8243 ft 277 kts 341°
2026-05-05 09:59 48.46149 16.30355 7997 ft 278 kts 346°
2026-05-05 09:59 48.48056 16.30368 7823 ft 273 kts 15°
2026-05-05 09:59 48.49686 16.31666 7679 ft 260 kts 45°
2026-05-05 10:00 48.50705 16.33793 7568 ft 244 kts 72°
2026-05-05 10:00 48.51168 16.36178 7444 ft 231 kts 86°
2026-05-05 10:00 48.51112 16.38452 7361 ft 207 kts 111°
2026-05-05 10:00 48.50534 16.40309 7206 ft 188 kts 133°
2026-05-05 10:01 48.49618 16.41630 6969 ft 178 kts 153°
2026-05-05 10:01 48.48506 16.42358 6729 ft 173 kts 169°
2026-05-05 10:01 48.47345 16.42837 6503 ft 172 kts 169°
2026-05-05 10:01 48.46189 16.43326 6236 ft 173 kts 168°
2026-05-05 10:02 48.45040 16.43816 5994 ft 171 kts 168°
2026-05-05 10:02 48.43893 16.44304 5817 ft 171 kts 168°
2026-05-05 10:02 48.42751 16.44783 5720 ft 171 kts 168°
2026-05-05 10:02 48.41604 16.45242 5633 ft 170 kts 169°
2026-05-05 10:03 48.40459 16.45704 5562 ft 169 kts 168°
2026-05-05 10:03 48.39319 16.46182 5496 ft 169 kts 168°
2026-05-05 10:03 48.38241 16.46642 5423 ft 151 kts 168°
2026-05-05 10:03 48.37252 16.47063 5356 ft 146 kts 168°
2026-05-05 10:04 48.36279 16.47478 5318 ft 146 kts 169°
2026-05-05 10:04 48.35308 16.47892 5201 ft 145 kts 168°
2026-05-05 10:04 48.34337 16.48307 5035 ft 144 kts 168°
2026-05-05 10:04 48.33372 16.48718 4859 ft 144 kts 168°
2026-05-05 10:05 48.32410 16.49129 4681 ft 143 kts 169°
2026-05-05 10:05 48.31454 16.49537 4487 ft 142 kts 168°
2026-05-05 10:05 48.30503 16.49943 4303 ft 142 kts 168°
2026-05-05 10:05 48.29566 16.50342 4120 ft 142 kts 167°
2026-05-05 10:06 48.28618 16.50746 3932 ft 141 kts 167°
2026-05-05 10:06 48.27673 16.51149 3731 ft 141 kts 171°
2026-05-05 10:06 48.26732 16.51550 3536 ft 140 kts 171°
2026-05-05 10:06 48.25797 16.51948 3364 ft 140 kts 170°
2026-05-05 10:07 48.24863 16.52346 3178 ft 139 kts 169°
2026-05-05 10:07 48.23925 16.52745 3001 ft 140 kts 168°
2026-05-05 10:07 48.22992 16.53142 2812 ft 140 kts 168°
2026-05-05 10:07 48.22061 16.53538 2630 ft 138 kts 168°
2026-05-05 10:08 48.21136 16.53931 2449 ft 138 kts 167°
2026-05-05 10:08 48.20201 16.54328 2265 ft 138 kts 166°
2026-05-05 10:08 48.19277 16.54721 2086 ft 139 kts 165°
2026-05-05 10:08 48.18353 16.55113 1903 ft 137 kts 164°
2026-05-05 10:09 48.17431 16.55504 1716 ft 137 kts 163°
2026-05-05 10:09 48.16517 16.55891 1533 ft 134 kts 165°
2026-05-05 10:09 48.15626 16.56271 1356 ft 132 kts 163°
2026-05-05 10:09 48.14737 16.56648 1199 ft 135 kts 164°
2026-05-05 10:10 48.13815 16.57039 1039 ft 143 kts 163°
2026-05-05 10:10 48.12842 16.57450 875 ft 145 kts 161°
2026-05-05 10:10 48.11880 16.57845 632 ft 139 kts 160°
2026-05-05 10:10 48.11131 16.58188 611 ft 73 kts 166°
2026-05-05 10:11 48.10841 16.58295 623 ft 32 kts 175°
2026-05-05 10:11 48.10628 16.58260 608 ft 28 kts 192°
2026-05-05 10:11 48.10552 16.58148 619 ft 14 kts 327°
2026-05-05 10:11 48.10629 16.58118 619 ft 11 kts 344°
2026-05-05 10:12 48.10696 16.58090 622 ft 9 kts 345°
2026-05-05 10:12 48.10750 16.58064 618 ft 7 kts 342°
2026-05-05 10:12 48.10832 16.58024 610 ft 18 kts 342°
2026-05-05 10:12 48.10948 16.57976 613 ft 16 kts 345°
2026-05-05 10:13 48.11049 16.57932 616 ft 15 kts 344°
2026-05-05 10:13 48.11118 16.57839 620 ft 12 kts 292°
2026-05-05 10:13 48.11147 16.57750 619 ft 7 kts 297°
2026-05-05 10:13 48.11187 16.57629 616 ft 20 kts 296°
2026-05-05 10:14 48.11245 16.57452 623 ft 17 kts 296°
2026-05-05 10:14 48.11294 16.57305 628 ft 15 kts 296°
2026-05-05 10:14 48.11337 16.57168 623 ft 14 kts 294°
2026-05-05 10:14 48.11373 16.57048 623 ft 12 kts 295°
2026-05-05 10:15 48.11409 16.56936 623 ft 13 kts 295°
2026-05-05 10:15 48.11475 16.56878 626 ft 12 kts
2026-05-05 10:15 48.11556 16.56909 609 ft 12 kts 332°
2026-05-05 10:15 48.11613 16.56846 608 ft 7 kts 343°
2026-05-05 10:16 48.11655 16.56886 612 ft 7 kts 28°
2026-05-05 10:16 48.11677 16.56899 609 ft 0 kts 26°